QPF
0.00 0.00 0.00 0.00 0.00 0.00 0.03 0.03 0.05 0.01 0.00 0.00 0.00 0.00 0.00 0.00 0.00 0.00 0.00 0.00 0.00 0.00 0.00 0.00 0.00 0.00 0.00 0.00 0.00 0.00 0.00 0.00 0.00 0.00 0.00 0.00 0.00 0.00 0.00 0.00 0.00 0.00
0.00 0.00 0.00 0.00 0.00 0.00 0.00 0.07 0.23 0.00 0.03 0.00 0.00 0.00 0.00 0.00 0.00 0.00 0.00 0.00 0.00 0.00 0.00 0.00 0.00 0.00 0.00 0.00 0.00 0.00 0.00 0.00 0.00 0.00 0.00 0.00 0.00 0.00 0.00 0.00 0.00 0.00
0.00 0.00 0.00 0.00 0.00 0.00 0.00 0.01 0.04 0.02 0.00 0.00 0.00 0.00 0.00 0.00 0.00 0.00 0.00 0.00 0.00 0.00 0.00 0.00 0.00 0.00 0.00 0.00 0.00 0.00 0.00 0.00 0.00 0.00 0.00 0.00 0.00 0.00 0.00 0.00 0.00 0.00
0.00 0.00 0.00 0.00 0.00 0.00 0.01 0.02 0.04 0.04 0.02 0.00 0.00 0.00 0.00 0.00 0.00 0.00 0.00 0.00 0.00 0.00 0.00 0.00 0.00 0.00 0.00 0.00 0.00 0.00 0.00 0.00 0.00 0.00 0.00 0.00 0.00 0.00 0.00 0.00 0.00 0.00
0.00 0.00 0.00 0.00 0.00 0.00 0.00 0.00 0.00 0.01 0.01 0.00 0.00 0.00 0.00 0.00 0.00 0.00 0.00 0.00 0.00 0.00 0.00 0.00 0.00 0.00 0.00 0.00 0.00 0.00 0.00 0.00 0.00 0.00 0.00 0.00 0.00 0.00 0.00 0.00 0.00 0.00
0.00 0.00 0.00 0.00 0.00 0.00 0.00 0.00 0.00 0.00 0.00 0.00 0.00 0.00 0.00 0.00 0.00 0.00 0.00 0.00 0.00 0.00 0.00 0.00 0.00 0.00 0.00 0.00 0.00 0.00 0.00 0.00 0.00 0.00 0.00 0.00 0.00 0.00 0.00 0.00 0.00 0.00
0.00 0.00 0.00 0.00 0.00 0.00 0.00 0.00 0.00 0.00 0.00 0.00 0.00 0.00 0.00 0.00 0.00 0.00 0.00 0.00 0.00 0.00 0.00 0.00 0.00 0.00 0.00 0.00 0.00 0.00 0.00 0.00 0.00 0.00 0.00 0.00 0.00 0.00 0.00 0.00 0.00 0.00
0.00 0.00 0.00 0.00 0.00 0.00 0.00 0.00 0.00 0.00 0.00 0.00 0.00 0.00 0.00 0.00 0.00 0.00 0.00 0.00 0.00 0.00 0.00 0.00 0.00 0.00 0.00 0.00 0.00 0.00 0.00 0.00 0.00 0.00 0.00 0.00 0.00 0.00 0.00 0.00 0.00 0.00
0.00 0.00 0.00 0.00 0.00 0.00 0.00 0.00 0.00 0.00 0.00 0.00 0.00 0.00 0.00 0.00 0.00 0.00 0.00 0.00 0.00 0.00 0.00 0.00 0.00 0.00 0.00 0.00 0.00 0.00 0.00 0.00 0.00 0.00 0.00 0.00 0.00 0.00 0.00 0.00 0.00 0.00
0.00 0.00 0.00 0.00 0.00 0.00 0.00 0.00 0.00 0.00 0.00 0.00 0.00 0.00 0.00 0.00 0.00 0.00 0.00 0.00 0.00 0.00 0.00 0.00 0.00 0.00 0.00 0.00 0.00 0.00 0.00 0.00 0.00 0.00 0.00 0.00 0.00 0.00 0.00 0.00 0.00 0.00
0.00 0.00 0.00 0.00 0.00 0.00 0.00 0.00 0.00 0.00 0.00 0.00 0.00 0.00 0.00 0.00 0.00 0.00 0.00 0.00 0.00 0.00 0.00 0.00 0.00 0.00 0.00 0.00 0.00 0.00 0.00 0.00 0.00 0.00 0.00 0.00 0.00 0.00 0.00 0.00 0.00 0.00
0.00 0.00 0.00 0.00 0.00 0.00 0.00 0.00 0.00 0.00 0.00 0.00 0.00 0.00 0.00 0.00 0.00 0.00 0.00 0.00 0.00 0.00 0.00 0.00 0.00 0.00 0.00 0.00 0.00 0.00 0.00 0.00 0.00 0.00 0.00 0.00 0.00 0.00 0.00 0.00 0.00 0.00
0.00 0.00 0.00 0.00 0.00 0.00 0.00 0.00 0.00 0.00 0.00 0.00 0.00 0.00 0.00 0.00 0.00 0.00 0.00 0.00 0.00 0.00 0.00 0.00 0.00 0.00 0.00 0.00 0.00 0.00 0.00 0.00 0.00 0.00 0.00 0.00 0.00 0.00 0.00 0.00 0.00 0.00
0.00 0.00 0.00 0.00 0.00 0.00 0.00 0.00 0.00 0.00 0.00 0.00 0.00 0.00 0.00 0.00 0.00 0.00 0.00 0.00 0.00 0.00 0.00 0.00 0.00 0.00 0.00 0.00 0.00 0.00 0.00 0.00 0.00 0.00 0.00 0.00 0.00 0.00 0.00 0.00 0.00 0.00
0.00 0.00 0.00 0.00 0.00 0.00 0.00 0.00 0.01 0.00 0.00 0.00 0.00 0.00 0.00 0.00 0.00 0.00 0.00 0.00 0.00 0.00 0.00 0.00 0.00 0.00 0.00 0.00 0.00 0.00 0.00 0.00 0.00 0.00 0.00 0.00 0.00 0.00 0.00 0.00 0.00 0.00
0.00 0.00 0.00 0.00 0.00 0.01 0.01 0.01 0.01 0.01 0.00 0.00 0.00 0.00 0.00 0.00 0.00 0.00 0.00 0.00 0.00 0.00 0.00 0.00 0.00 0.00 0.00 0.00 0.00 0.00 0.00 0.00 0.00 0.00 0.00 0.00 0.00 0.00 0.00 0.00 0.00 0.00
0.01 0.00 0.00 0.01 0.00 0.00 0.01 0.01 0.01 0.00 0.00 0.00 0.00 0.00 0.00 0.00 0.00 0.00 0.00 0.00 0.00 0.00 0.00 0.00 0.00 0.00 0.00 0.00 0.00 0.00 0.00 0.00 0.00 0.00 0.00 0.00 0.00 0.00 0.00 0.00 0.00 0.00
0.00 0.01 0.01 0.01 0.01 0.01 0.00 0.01 0.01 0.01 0.00 0.00 0.00 0.00 0.00 0.00 0.00 0.00 0.00 0.00 0.00 0.00 0.00 0.00 0.00 0.00 0.00 0.00 0.00 0.00 0.00 0.00 0.00 0.00 0.00 0.00 0.07 0.08 0.04 0.00 0.00 0.00
0.01 0.01 0.01 0.02 0.01 0.01 0.00 0.00 0.00 0.01 0.06 0.01 0.00 0.00 0.00 0.00 0.04 0.41 0.01 0.00 0.00 0.00 0.00 0.00 0.00 0.00 0.00 0.00 0.00 0.00 0.00 0.00 0.02 0.08 0.17 0.12 0.04 0.00 0.00 0.00 0.00 0.00
0.01 0.01 0.01 0.01 0.01 0.01 0.01 0.01 0.01 0.04 0.01 0.00 0.00 0.00 0.00 0.03 0.20 0.00 0.00 0.00 0.00 0.00 0.00 0.00 0.00 0.00 0.00 0.00 0.00 0.00 0.00 0.03 0.03 0.03 0.00 0.00 0.00 0.00 0.00 0.00 0.00 0.00
0.01 0.01 0.00 0.00 0.00 0.01 0.02 0.03 0.07 0.03 0.01 0.00 0.00 0.00 0.00 0.06 0.32 0.04 0.05 0.00 0.00 0.00 0.00 0.00 0.00 0.00 0.00 0.00 0.00 0.00 0.00 0.00 0.00 0.00 0.00 0.00 0.00 0.00 0.00 0.00 0.00 0.00
0.00 0.00 0.00 0.00 0.00 0.00 0.01 0.03 0.03 0.02 0.01 0.01 0.01 0.00 0.05 0.00 0.00 0.00 0.00 0.00 0.00 0.00 0.00 0.00 0.00 0.00 0.00 0.01 0.00 0.00 0.00 0.00 0.00 0.00 0.01 0.00 0.00 0.00 0.00 0.00 0.01 0.00
0.01 0.01 0.01 0.01 0.01 0.02 0.00 0.01 0.02 0.02 0.01 0.00 0.00 0.00 0.01 0.11 0.00 0.00 0.00 0.00 0.00 0.00 0.00 0.00 0.00 0.00 0.00 0.00 0.05 0.00 0.05 0.00 0.00 0.00 0.00 0.00 0.01 0.06 0.02 0.00 0.00 0.00
0.00 0.01 0.01 0.04 0.07 0.48 0.01 0.00 0.00 0.00 0.00 0.00 0.00 0.00 0.00 0.10 0.16 0.03 0.00 0.00 0.00 0.00 0.00 0.00 0.00 0.00 0.02 0.15 0.06 0.00 0.02 0.03 0.01 0.00 0.00 0.02 0.03 0.03 0.00 0.00 0.00 0.00
0.00 0.01 0.01 0.02 0.06 0.85 1.05 0.27 0.00 0.00 0.00 0.06 0.69 0.46 0.70 0.85 0.46 0.06 0.00 0.00 0.00 0.00 0.01 0.10 0.04 0.08 0.03 0.01 0.00 0.00 0.00 0.00 0.00 0.00 0.00 0.00 0.02 0.05 0.03 0.00 0.01 0.00
0.00 0.01 0.04 0.04 0.27 0.55 0.07 0.08 0.06 0.03 0.11 1.08 0.57 0.14 0.09 0.09 0.05 0.06 0.00 0.00 0.00 0.01 0.02 0.02 0.01 0.01 0.00 0.00 0.00 0.00 0.00 0.00 0.00 0.00 0.00 0.00 0.00 0.00 0.01 0.02 0.00 0.00
MSLP
1012.58 1012.94 1013.38 1013.78 1014.14 1014.46 1015.06 1015.62 1016.06 1016.34 1016.50 1016.74 1017.02 1017.30 1017.50 1017.70 1017.94 1018.06 1018.14 1018.30 1018.34 1018.42 1018.66 1018.86 1019.10 1019.26 1019.50 1019.66 1019.82 1020.02 1020.18 1020.38 1020.58 1020.70 1020.82 1020.90 1021.10 1021.14 1021.30 1021.50 1021.62 1021.58
1012.34 1012.66 1013.06 1013.50 1013.94 1014.38 1014.90 1015.26 1015.46 1015.70 1016.22 1016.50 1016.74 1017.10 1017.42 1017.66 1017.86 1017.94 1018.10 1018.26 1018.38 1018.50 1018.70 1018.94 1019.14 1019.30 1019.54 1019.70 1019.90 1020.02 1020.34 1020.46 1020.62 1020.90 1020.86 1020.98 1021.26 1021.38 1021.50 1021.62 1021.70 1021.94
1012.22 1012.54 1012.78 1013.14 1013.62 1014.18 1014.62 1015.02 1015.30 1015.62 1016.02 1016.34 1016.62 1016.98 1017.30 1017.54 1017.74 1017.94 1018.02 1018.14 1018.30 1018.58 1018.78 1018.98 1019.22 1019.42 1019.58 1019.78 1019.94 1020.10 1020.30 1020.50 1020.66 1020.94 1020.98 1021.14 1021.38 1021.42 1021.70 1021.78 1021.82 1021.78
1011.90 1012.10 1012.42 1012.82 1013.30 1013.90 1014.34 1014.86 1015.34 1015.62 1015.98 1016.38 1016.58 1016.82 1017.06 1017.38 1017.58 1017.78 1017.94 1018.06 1018.26 1018.58 1018.82 1019.06 1019.22 1019.50 1019.66 1019.86 1020.02 1020.26 1020.42 1020.58 1020.74 1020.94 1021.14 1021.42 1021.54 1021.54 1021.70 1021.78 1021.86 1021.98
1011.62 1011.98 1012.22 1012.58 1013.06 1013.54 1014.06 1014.62 1015.06 1015.38 1015.70 1015.94 1016.38 1016.70 1016.94 1017.22 1017.50 1017.70 1017.86 1018.10 1018.30 1018.58 1018.86 1019.10 1019.34 1019.54 1019.74 1019.94 1020.06 1020.26 1020.50 1020.66 1020.94 1020.98 1021.10 1021.42 1021.62 1021.58 1021.74 1021.70 1021.82 1021.98
1011.54 1011.74 1011.98 1012.38 1012.82 1013.30 1013.86 1014.26 1014.62 1015.10 1015.50 1015.90 1016.14 1016.46 1016.70 1016.98 1017.26 1017.50 1017.74 1018.02 1018.34 1018.58 1018.86 1019.10 1019.34 1019.62 1019.78 1019.94 1020.14 1020.26 1020.54 1020.74 1021.02 1021.06 1021.18 1021.34 1021.62 1021.70 1021.78 1021.82 1021.90 1022.10
1011.22 1011.50 1011.82 1012.18 1012.66 1013.06 1013.50 1013.94 1014.38 1014.82 1015.14 1015.38 1015.90 1016.26 1016.54 1016.90 1017.14 1017.38 1017.66 1017.94 1018.22 1018.50 1018.74 1019.06 1019.34 1019.66 1019.86 1020.02 1020.18 1020.42 1020.70 1020.82 1021.02 1021.10 1021.18 1021.50 1021.58 1021.78 1021.94 1021.98 1022.10 1022.26
1010.86 1011.18 1011.58 1012.02 1012.50 1012.94 1013.38 1013.78 1014.26 1014.62 1014.94 1015.34 1015.66 1016.02 1016.34 1016.66 1016.98 1017.34 1017.62 1017.90 1018.18 1018.46 1018.74 1019.02 1019.30 1019.54 1019.86 1020.02 1020.22 1020.54 1020.78 1020.94 1021.06 1021.14 1021.26 1021.54 1021.66 1021.74 1022.02 1022.14 1022.30 1022.38
1010.54 1010.94 1011.26 1011.78 1012.34 1012.78 1013.18 1013.58 1013.98 1014.34 1014.62 1014.98 1015.42 1015.90 1016.26 1016.50 1016.86 1017.18 1017.54 1017.82 1018.10 1018.38 1018.70 1019.02 1019.26 1019.54 1019.82 1019.98 1020.26 1020.46 1020.66 1020.98 1021.06 1021.14 1021.26 1021.46 1021.62 1021.82 1022.02 1022.30 1022.42 1022.62
1010.34 1010.62 1011.02 1011.46 1012.06 1012.50 1012.90 1013.30 1013.70 1014.06 1014.38 1014.78 1015.22 1015.74 1016.14 1016.50 1016.74 1017.02 1017.42 1017.74 1018.02 1018.38 1018.70 1018.98 1019.30 1019.62 1019.90 1020.06 1020.22 1020.42 1020.66 1020.86 1021.10 1021.18 1021.30 1021.46 1021.58 1021.86 1022.14 1022.34 1022.46 1022.74
1010.14 1010.38 1010.74 1011.10 1011.58 1012.18 1012.66 1013.06 1013.42 1013.82 1014.22 1014.62 1015.14 1015.66 1016.02 1016.38 1016.78 1017.02 1017.34 1017.66 1017.94 1018.30 1018.66 1018.94 1019.22 1019.58 1019.86 1020.14 1020.30 1020.42 1020.58 1020.82 1021.02 1021.18 1021.38 1021.54 1021.70 1021.90 1022.10 1022.30 1022.54 1022.66
1009.78 1010.10 1010.42 1010.74 1011.14 1011.74 1012.30 1012.78 1013.22 1013.66 1014.10 1014.54 1014.86 1015.38 1015.90 1016.22 1016.54 1016.98 1017.22 1017.58 1017.86 1018.18 1018.42 1018.78 1019.14 1019.46 1019.74 1019.98 1020.22 1020.46 1020.62 1020.78 1020.98 1021.22 1021.42 1021.62 1021.82 1021.98 1022.10 1022.38 1022.50 1022.74
1009.30 1009.62 1009.98 1010.46 1010.86 1011.34 1011.98 1012.54 1013.06 1013.50 1013.94 1014.30 1014.70 1015.10 1015.58 1016.10 1016.50 1016.82 1017.18 1017.42 1017.78 1018.10 1018.38 1018.70 1019.06 1019.38 1019.66 1019.90 1020.18 1020.38 1020.58 1020.78 1021.02 1021.26 1021.46 1021.70 1021.86 1021.98 1022.22 1022.46 1022.62 1022.82
1008.78 1009.22 1009.74 1010.18 1010.62 1011.06 1011.62 1012.26 1012.82 1013.30 1013.62 1013.98 1014.42 1014.94 1015.38 1015.78 1016.22 1016.66 1017.06 1017.38 1017.66 1017.94 1018.30 1018.58 1018.94 1019.26 1019.54 1019.82 1020.06 1020.30 1020.54 1020.78 1020.98 1021.22 1021.50 1021.70 1021.90 1022.10 1022.30 1022.50 1022.70 1022.90
1008.54 1009.02 1009.46 1010.02 1010.46 1010.90 1011.42 1012.10 1012.62 1012.98 1013.30 1013.66 1014.10 1014.66 1015.14 1015.54 1015.98 1016.42 1016.90 1017.34 1017.66 1017.94 1018.26 1018.54 1018.78 1019.06 1019.38 1019.66 1019.98 1020.26 1020.46 1020.70 1020.98 1021.22 1021.46 1021.70 1021.94 1022.22 1022.42 1022.62 1022.78 1022.90
1008.22 1008.74 1009.26 1009.78 1010.34 1010.70 1011.02 1011.78 1012.38 1012.78 1013.06 1013.42 1013.86 1014.38 1014.90 1015.38 1015.82 1016.26 1016.58 1016.94 1017.42 1017.86 1018.14 1018.42 1018.62 1018.86 1019.10 1019.34 1019.62 1020.02 1020.42 1020.70 1020.98 1021.18 1021.38 1021.66 1021.98 1022.34 1022.58 1022.74 1022.74 1022.82
1008.02 1008.54 1009.02 1009.58 1010.02 1010.54 1010.90 1011.38 1011.98 1012.42 1012.90 1013.26 1013.70 1014.22 1014.66 1015.14 1015.54 1016.02 1016.38 1016.74 1017.06 1017.50 1017.90 1018.22 1018.38 1018.62 1018.82 1019.14 1019.46 1019.78 1020.14 1020.54 1020.78 1021.10 1021.38 1021.70 1022.02 1022.30 1022.50 1022.74 1022.86 1022.90
1007.82 1008.34 1008.82 1009.34 1009.86 1010.30 1010.66 1011.18 1011.86 1012.38 1012.74 1012.98 1013.50 1014.10 1014.42 1014.82 1015.30 1015.58 1016.06 1016.54 1016.94 1017.30 1017.62 1017.90 1018.14 1018.30 1018.62 1018.98 1019.30 1019.62 1019.94 1020.30 1020.66 1021.02 1021.42 1021.70 1022.10 1022.46 1022.66 1022.70 1022.82 1022.94
1007.54 1008.10 1008.62 1009.14 1009.58 1010.02 1010.50 1011.14 1011.82 1012.30 1012.66 1012.74 1013.02 1013.46 1014.06 1014.62 1015.22 1015.94 1016.22 1016.50 1016.78 1017.14 1017.50 1017.74 1017.94 1018.14 1018.46 1018.82 1019.18 1019.50 1019.78 1020.10 1020.62 1020.98 1021.34 1021.62 1021.94 1022.30 1022.50 1022.62 1022.78 1022.82
1007.26 1007.78 1008.30 1008.82 1009.38 1009.94 1010.46 1010.98 1011.50 1011.94 1012.10 1012.30 1012.58 1013.14 1013.78 1014.54 1015.02 1015.18 1015.78 1016.26 1016.50 1016.78 1017.18 1017.50 1017.70 1017.98 1018.34 1018.74 1019.06 1019.34 1019.70 1020.02 1020.50 1020.86 1021.14 1021.42 1021.86 1022.10 1022.26 1022.42 1022.62 1022.70
1007.10 1007.54 1008.06 1008.62 1009.14 1009.74 1010.26 1010.70 1011.10 1011.46 1011.70 1011.82 1012.10 1012.58 1013.34 1014.02 1014.50 1015.02 1015.42 1015.86 1016.22 1016.54 1016.90 1017.26 1017.42 1017.82 1018.22 1018.54 1018.94 1019.30 1019.58 1019.82 1020.26 1020.66 1021.02 1021.34 1021.66 1021.86 1021.94 1022.14 1022.34 1022.46
1006.66 1007.34 1007.82 1008.30 1008.90 1009.46 1010.02 1010.46 1010.74 1010.94 1011.10 1011.42 1011.74 1012.26 1012.90 1013.46 1013.98 1014.34 1014.90 1015.30 1015.78 1016.30 1016.70 1017.06 1017.30 1017.70 1018.06 1018.46 1018.86 1019.18 1019.50 1019.82 1020.22 1020.54 1020.90 1021.30 1021.62 1021.74 1021.78 1021.86 1022.06 1022.18
1006.30 1006.98 1007.58 1008.06 1008.58 1009.18 1009.62 1009.94 1010.38 1010.62 1010.74 1011.06 1011.58 1012.02 1012.86 1013.50 1013.74 1014.10 1014.54 1015.02 1015.62 1016.06 1016.38 1016.82 1017.22 1017.70 1017.94 1018.34 1018.54 1018.86 1019.42 1019.82 1020.14 1020.46 1020.82 1021.10 1021.26 1021.42 1021.58 1021.82 1022.02 1022.10
1006.02 1006.62 1007.30 1007.94 1008.46 1008.82 1009.10 1009.34 1009.50 1009.86 1010.22 1010.58 1011.02 1011.86 1012.62 1013.10 1013.38 1013.98 1014.38 1014.82 1015.30 1015.78 1016.06 1016.46 1016.90 1017.50 1017.82 1017.94 1018.30 1018.90 1018.90 1019.38 1019.90 1020.30 1020.66 1020.82 1021.06 1021.26 1021.46 1021.62 1021.82 1021.94
1005.74 1006.42 1006.98 1007.54 1008.18 1008.42 1008.50 1008.70 1008.98 1009.22 1009.66 1010.42 1011.02 1011.42 1011.94 1012.82 1013.70 1014.06 1014.34 1014.74 1015.14 1015.58 1016.02 1016.30 1016.78 1017.42 1017.78 1017.98 1018.42 1018.78 1018.86 1019.26 1019.74 1020.14 1020.42 1020.66 1020.86 1021.10 1021.34 1021.42 1021.62 1021.66
1005.62 1006.30 1007.02 1007.42 1007.66 1007.98 1008.38 1008.78 1009.22 1009.70 1010.38 1011.10 1011.74 1012.06 1012.62 1013.06 1013.50 1013.90 1014.14 1014.54 1015.02 1015.58 1015.90 1016.18 1016.70 1017.26 1017.66 1017.86 1018.02 1018.26 1018.46 1018.86 1019.34 1019.74 1020.02 1020.30 1020.54 1020.66 1020.90 1021.14 1021.42 1021.54
Thickness
5697 5694 5690 5686 5683 5680 5676 5670 5669 5669 5666 5664 5661 5658 5656 5653 5651 5650 5649 5649 5647 5646 5644 5642 5640 5639 5637 5635 5634 5632 5631 5629 5628 5626 5625 5624 5622 5620 5618 5616 5615 5613
5696 5693 5689 5686 5682 5678 5675 5671 5670 5669 5666 5662 5660 5657 5654 5652 5650 5649 5648 5647 5645 5643 5642 5639 5638 5636 5634 5632 5631 5629 5628 5626 5625 5623 5622 5620 5618 5617 5615 5613 5611 5610
5694 5692 5690 5687 5682 5678 5674 5671 5669 5668 5664 5661 5659 5656 5653 5651 5649 5647 5646 5645 5643 5641 5639 5637 5635 5633 5631 5630 5628 5626 5625 5624 5622 5620 5619 5617 5616 5614 5612 5610 5608 5607
5694 5692 5690 5686 5682 5677 5674 5670 5667 5665 5662 5659 5657 5655 5652 5650 5647 5646 5644 5643 5641 5639 5636 5634 5632 5630 5628 5627 5625 5623 5622 5621 5619 5617 5616 5613 5612 5611 5609 5607 5606 5604
5693 5691 5689 5685 5681 5677 5673 5670 5666 5664 5662 5659 5657 5654 5652 5649 5646 5644 5643 5640 5639 5636 5634 5631 5629 5627 5626 5624 5623 5620 5618 5617 5616 5615 5613 5611 5609 5608 5606 5605 5603 5600
5691 5689 5687 5684 5680 5677 5673 5670 5667 5664 5662 5659 5656 5654 5651 5648 5645 5644 5641 5639 5637 5634 5631 5629 5626 5624 5623 5621 5619 5618 5616 5614 5613 5612 5611 5608 5606 5605 5603 5601 5599 5596
5690 5689 5686 5682 5679 5676 5673 5669 5667 5665 5662 5659 5656 5652 5650 5647 5644 5642 5640 5637 5635 5632 5629 5627 5624 5622 5620 5618 5616 5614 5613 5612 5610 5609 5607 5605 5603 5601 5599 5596 5594 5591
5690 5687 5684 5681 5677 5674 5671 5669 5666 5664 5662 5658 5655 5651 5649 5645 5642 5640 5637 5635 5633 5630 5628 5625 5622 5620 5618 5616 5614 5612 5610 5609 5608 5606 5604 5602 5600 5598 5595 5592 5589 5587
5688 5687 5684 5680 5676 5672 5670 5668 5666 5663 5661 5658 5654 5650 5647 5643 5641 5639 5636 5633 5631 5628 5626 5623 5621 5618 5616 5614 5612 5610 5608 5606 5605 5604 5602 5599 5597 5594 5591 5588 5585 5582
5687 5686 5683 5679 5675 5672 5670 5667 5665 5663 5660 5657 5653 5649 5645 5642 5639 5637 5634 5631 5629 5626 5623 5621 5618 5615 5613 5611 5609 5608 5606 5604 5602 5600 5599 5596 5594 5591 5587 5585 5581 5579
5686 5684 5682 5680 5676 5672 5669 5666 5664 5662 5658 5655 5651 5647 5643 5640 5637 5635 5632 5630 5627 5624 5621 5618 5615 5613 5610 5608 5606 5605 5603 5601 5599 5597 5594 5592 5589 5587 5585 5581 5578 5575
5686 5684 5682 5680 5677 5673 5669 5665 5662 5660 5657 5653 5650 5646 5641 5638 5635 5633 5630 5627 5624 5622 5619 5617 5614 5610 5608 5606 5604 5602 5600 5598 5596 5594 5591 5589 5586 5584 5581 5577 5575 5571
5687 5685 5682 5679 5676 5673 5668 5664 5661 5658 5655 5652 5649 5645 5641 5637 5634 5631 5628 5625 5623 5620 5618 5615 5611 5609 5606 5604 5602 5600 5598 5595 5593 5591 5588 5585 5582 5580 5577 5573 5571 5568
5687 5684 5681 5678 5675 5672 5668 5663 5660 5657 5655 5652 5648 5644 5640 5636 5633 5629 5626 5623 5620 5618 5615 5613 5610 5607 5604 5602 5600 5597 5595 5593 5590 5587 5584 5581 5578 5575 5573 5570 5567 5564
5686 5683 5680 5676 5673 5671 5667 5663 5659 5656 5654 5652 5647 5643 5639 5635 5632 5629 5625 5622 5618 5616 5613 5611 5608 5605 5603 5601 5598 5595 5593 5590 5587 5584 5581 5578 5574 5571 5568 5566 5563 5561
5684 5681 5679 5675 5672 5670 5667 5662 5658 5655 5654 5651 5647 5642 5638 5634 5631 5627 5624 5621 5618 5614 5611 5609 5606 5605 5602 5600 5597 5594 5590 5587 5584 5581 5578 5575 5571 5567 5564 5562 5560 5558
5683 5680 5677 5674 5671 5668 5666 5662 5658 5655 5652 5649 5645 5640 5636 5633 5630 5627 5623 5621 5618 5614 5610 5608 5605 5604 5601 5599 5596 5592 5589 5586 5582 5579 5575 5571 5567 5563 5560 5558 5556 5554
5681 5678 5675 5672 5669 5667 5665 5660 5655 5652 5650 5647 5643 5638 5635 5632 5628 5625 5622 5619 5617 5613 5609 5607 5605 5603 5601 5597 5594 5591 5587 5584 5580 5576 5572 5568 5564 5560 5557 5555 5552 5550
5680 5677 5674 5670 5669 5666 5662 5657 5652 5649 5648 5646 5643 5638 5635 5630 5626 5623 5621 5617 5615 5611 5608 5606 5604 5602 5599 5595 5592 5589 5585 5582 5577 5573 5570 5566 5562 5558 5555 5552 5550 5547
5678 5676 5672 5669 5667 5663 5659 5655 5651 5648 5647 5646 5644 5639 5634 5629 5625 5623 5619 5616 5614 5611 5607 5605 5603 5600 5597 5593 5590 5586 5583 5580 5576 5571 5568 5564 5560 5557 5554 5551 5547 5544
5676 5674 5671 5668 5665 5661 5657 5654 5650 5650 5648 5647 5644 5640 5635 5630 5626 5624 5619 5616 5613 5610 5607 5604 5601 5598 5594 5591 5587 5583 5581 5578 5574 5570 5566 5562 5558 5555 5552 5550 5546 5542
5675 5672 5668 5666 5663 5659 5656 5653 5651 5651 5649 5647 5644 5640 5634 5629 5625 5622 5619 5616 5613 5609 5605 5602 5599 5596 5592 5588 5584 5581 5578 5575 5571 5567 5563 5559 5555 5552 5550 5548 5544 5541
5675 5670 5666 5663 5660 5657 5655 5653 5652 5651 5648 5645 5640 5635 5630 5626 5623 5621 5618 5615 5612 5608 5605 5600 5597 5593 5589 5586 5583 5580 5576 5572 5568 5565 5561 5557 5553 5550 5548 5545 5542 5538
5673 5668 5664 5660 5657 5656 5657 5656 5653 5651 5648 5643 5638 5634 5630 5626 5623 5620 5617 5614 5611 5606 5603 5599 5595 5591 5588 5585 5581 5577 5575 5571 5566 5562 5558 5555 5552 5548 5545 5542 5539 5536
5670 5665 5661 5657 5655 5656 5657 5657 5654 5651 5645 5638 5633 5631 5628 5624 5619 5617 5615 5612 5608 5603 5601 5597 5593 5588 5585 5582 5578 5575 5573 5570 5565 5560 5556 5553 5550 5546 5542 5539 5536 5534
5666 5660 5656 5654 5655 5657 5655 5653 5651 5646 5637 5632 5629 5627 5624 5620 5618 5615 5612 5608 5604 5601 5597 5594 5591 5585 5581 5580 5577 5575 5573 5569 5564 5560 5556 5552 5548 5545 5541 5537 5534 5531